GW5164 Weather Reports


time (UTC)temp
C
wind
direction
speed
KPH
gust
KPH
rain 1hr
cm
rain 24hr
cm
rain mn
cm
humidity
%
barometer
mb
20260508144557 16 284 4.8 8.0 0.00 0.00 0.00 44 1018.1
20260508143105 16 184 0.0 8.0 0.00 0.00 0.00 48 1018.3
20260508141604 15 122 1.6 6.4 0.00 0.00 0.00 48 1018.1
20260508140055 16 224 1.6 4.8 0.00 0.00 0.00 48 1018.1
20260508134555 15 228 0.0 4.8 0.00 0.00 0.00 54 1018.0
20260508133101 14 7 1.6 6.4 0.00 0.00 0.00 57 1017.9
20260508131555 14 148 1.6 4.8 0.00 0.00 0.00 64 1017.8
20260508130059 13 117 1.6 4.8 0.00 0.00 0.00 63 1017.8
20260508124558 12 127 1.6 3.2 0.00 0.00 0.00 70 1017.7
20260508123056 11 138 1.6 3.2 0.00 0.00 0.00 77 1017.6
20260508121606 10 131 0.0 3.2 0.00 0.00 0.00 85 1017.5
20260508120056 9 113 0.0 3.2 0.00 0.00 0.00 88 1017.3
20260508114556 8 127 1.6 3.2 0.00 0.00 0.00 88 1017.1
20260508113108 8 104 0.0 1.6 0.00 0.00 0.00 91 1016.9
20260508111554 6 0 0.0 0.0 0.00 0.00 0.00 93 1016.8
20260508110057 5 130 0.0 1.6 0.00 0.00 0.00 92 1016.6
20260508104557 5 316 0.0 1.6 0.00 0.00 0.00 94 1016.3
20260508103112 5 0 0.0 1.6 0.00 0.00 0.00 93 1016.0
20260508101556 5 0 0.0 1.6 0.00 0.00 0.00 94 1015.9
20260508100054 5 0 0.0 1.6 0.00 0.00 0.00 94 1015.7
20260508094606 5 0 0.0 0.0 0.00 0.00 0.00 94 1015.6
20260508093056 5 257 0.0 1.6 0.00 0.00 0.00 94 1015.5
20260508091600 5 0 0.0 1.6 0.00 0.00 0.00 94 1015.4
20260508090054 5 0 0.0 1.6 0.00 0.00 0.00 94 1015.3
20260508084553 5 0 0.0 1.6 0.00 0.00 0.00 94 1015.2
20260508083132 6 0 0.0 1.6 0.00 0.00 0.00 94 1015.2
20260508081556 6 0 0.0 3.2 0.00 0.00 0.00 94 1015.1
20260508080059 6 6 0.0 1.6 0.00 0.00 0.00 94 1014.9
20260508074555 6 0 0.0 1.6 0.00 0.00 0.00 93 1014.8
20260508073104 6 0 0.0 1.6 0.00 0.00 0.00 93 1014.9
20260508071556 6 0 0.0 1.6 0.00 0.00 0.00 93 1014.6
20260508070059 6 0 0.0 1.6 0.00 0.00 0.00 93 1014.6
20260508064608 6 0 0.0 1.6 0.00 0.00 0.00 93 1014.4
20260508063056 6 0 0.0 1.6 0.00 0.00 0.00 93 1014.4
20260508061603 6 0 0.0 1.6 0.00 0.00 0.00 93 1014.3
20260508060107 6 0 0.0 0.0 0.00 0.00 0.00 93 1014.4
20260508054605 7 0 0.0 1.6 0.00 0.00 0.00 92 1014.4
20260508053104 7 0 0.0 3.2 0.00 0.00 0.00 92 1014.3
20260508051556 7 328 0.0 3.2 0.00 0.00 0.00 92 1014.2
20260508050059 7 0 0.0 1.6 0.00 0.00 0.00 91 1014.1
20260508044553 7 0 0.0 1.6 0.00 0.00 0.00 92 1014.0
20260508043056 7 0 0.0 1.6 0.00 0.00 0.00 92 1014.0
20260508041600 7 0 0.0 1.6 0.00 0.00 0.00 91 1013.9
20260508040110 8 0 0.0 1.6 0.00 0.00 0.00 90 1013.9
20260508034557 8 0 0.0 1.6 0.00 0.00 0.00 90 1013.9
20260508033101 8 0 0.0 1.6 0.00 0.00 0.00 89 1013.7
20260508031600 9 286 1.6 3.2 0.00 0.00 0.00 87 1013.9
20260508030114 9 0 1.6 6.4 0.00 0.00 0.00 87 1013.7
20260508024604 10 0 0.0 1.6 0.00 0.00 0.00 85 1013.4
20260508023055 10 298 1.6 4.8 0.00 0.00 0.00 82 1013.3
20260508021553 10 0 0.0 0.0 0.00 0.00 0.00 79 1013.3
20260508020054 11 0 0.0 3.2 0.00 0.00 0.00 78 1012.9
20260508014555 11 252 1.6 4.8 0.00 0.00 0.00 75 1012.6
20260508013054 12 0 0.0 1.6 0.00 0.00 0.00 72 1012.2
20260508011605 12 199 0.0 3.2 0.00 0.00 0.00 70 1011.9
20260508010106 13 0 0.0 4.8 0.00 0.00 0.00 64 1011.6
20260508004603 14 316 1.6 25.7 0.00 0.00 0.00 62 1011.5
20260508003110 15 299 1.6 19.3 0.00 0.00 0.00 61 1011.4
20260508001555 15 309 3.2 14.5 0.00 0.00 0.00 61 1011.3
20260508000057 15 262 3.2 24.1 0.00 0.00 0.00 63 1011.3
20260507234554 16 27 11.3 24.1 0.00 0.00 0.00 61 1011.2
20260507233055 17 274 4.8 17.7 0.00 0.00 0.00 60 1011.1
20260507231609 18 314 8.0 19.3 0.00 0.00 0.00 61 1010.9
20260507230056 18 269 4.8 16.1 0.00 0.00 0.00 64 1010.6
20260507224606 18 293 4.8 14.5 0.00 0.00 0.00 63 1010.2
20260507223057 18 323 4.8 12.9 0.00 0.00 0.00 65 1009.8
20260507221556 17 269 3.2 9.7 0.00 0.00 0.00 83 1009.6
20260507220056 17 69 4.8 17.7 0.00 0.00 0.00 84 1009.3
20260507214607 17 105 4.8 12.9 0.00 0.00 0.00 85 1009.2
20260507213107 17 86 4.8 12.9 0.00 0.00 0.00 84 1009.1
20260507211553 17 64 6.4 14.5 0.00 0.00 0.00 84 1009.0
20260507210056 17 101 9.7 25.7 0.00 0.00 0.00 84 1008.8
20260507204602 17 108 9.7 20.9 0.00 0.00 0.00 83 1008.5
20260507203057 18 131 11.3 22.5 0.00 0.00 0.00 82 1008.3
20260507201557 18 103 11.3 22.5 0.00 0.00 0.00 80 1008.2
20260507200057 18 37 8.0 20.9 0.00 0.00 0.00 81 1008.1
20260507194554 19 44 9.7 20.9 0.00 0.00 0.00 81 1008.0
20260507193110 19 63 9.7 22.5 0.00 0.00 0.00 82 1008.0
20260507191600 19 88 8.0 19.3 0.00 0.00 0.00 84 1008.3
20260507190105 20 39 6.4 17.7 0.00 0.00 0.00 82 1008.3
20260507184556 21 170 1.6 9.7 0.00 0.00 0.00 84 1007.7
20260507183101 22 243 1.6 6.4 0.00 0.00 0.00 79 1008.0
20260507181557 22 199 3.2 12.9 0.00 0.00 0.00 74 1008.0
20260507180104 22 142 8.0 16.1 0.00 0.00 0.00 72 1007.7
20260507174557 23 122 4.8 12.9 0.00 0.00 0.00 69 1008.0
20260507173057 23 223 1.6 11.3 0.00 0.00 0.00 69 1007.9
20260507171556 23 145 1.6 8.0 0.00 0.00 0.00 72 1008.3
20260507170054 23 197 4.8 12.9 0.00 0.00 0.00 73 1008.3
20260507164556 22 113 3.2 8.0 0.00 0.00 0.00 77 1008.5
20260507163054 22 241 1.6 9.7 0.00 0.00 0.00 74 1008.6
20260507161604 22 165 1.6 4.8 0.00 0.00 0.00 78 1008.9
20260507154558 20 307 0.0 9.7 0.00 0.00 0.00 80 1008.6
20260507153059 20 146 3.2 6.4 0.00 0.00 0.00 83 1008.7
20260507151555 20 176 1.6 6.4 0.00 0.00 0.00 86 1009.2
20260507150058 19 220 3.2 8.0 0.00 0.00 0.00 89 1009.2